User: anonymous   Login
Location: Meriden
(44.0740°N, 93.3870°W)
Time: 16:28:50
(UTC-05:00)
Language:

AO-27 - Orbit

View from above orbital plane
View from above orbital plane
View from above satellite
View from above satellite

Ground track
Ground track

The orbit data is extracted from the following two-line orbital elements,

1 22825U 93061C   14303.47783606  .00000267  00000-0  12119-3 0  8081
2 22825 098.6780 248.9303 0007356 258.6672 215.4002 14.29770998100118
Epoch (UTC): 30 October 2014 11:28:05
Eccentricity: 0.0007356
inclination: 98.6780°
perigee height: 787 km
apogee height: 798 km
right ascension of ascending node: 248.9303°
argument of perigee: 258.6672°
revolutions per day: 14.29770998
mean anomaly at epoch: 215.4002°
orbit number at epoch: 10011

The dashed part of the orbit path shows where the satellite is in the earth's shadow,  

DLR